Home > Weather > Uster > Past weeks

Flag for Switzerland Past Weather in Uster, Zurich, Switzerland — Yesterday and Last 2 Weeks

Now
64 °F

Mild.


Feels Like: 64 °F
Forecast: 58 / 74 °F
Wind: 2 mph from South

Location: Zuerich-Fluntern

Current Time: Jun 29, 2016 at 7:40:58 AM

Latest Report: Jun 29, 2016 at 5:00 AM


Visibility: N/A

Pressure: 29.99 "Hg

Humidity: 79%

Dew Point: 57 °F

Location of UsterLocation

Past Weather in Uster — Graph

°F

Uster Temperature Yesterday

Maximum temperature yesterday: 77 °F (at 6:00 PM)
Minimum temperature yesterday: 57 °F (at 6:00 AM)
Average temperature yesterday: 67 °F

High & Low Weather Summary for the Past Weeks

 TemperatureHumidityPressure
High90 °F (Jun 23, 6:00 PM)97% (Jun 17, 12:00 AM)30.28 "Hg (Jun 17, 12:00 AM)
Low48 °F (Jun 17, 6:00 AM)38% (Jun 24, 3:00 PM)29.59 "Hg (Jun 16, 5:00 AM)
Average62 °F78%30.01 "Hg
* Reported Jun 14 5:00 AM — Jun 29 5:00 AM, Uster, Weather by CustomWeather, © 2016

Note: Actual official high and low records may vary slightly from our data, if they occured in-between our weather recording intervals... More about our weather records

Advertising

Uster Weather History for the Previous 24 Hours

Scroll right to see more
 ConditionsComfort  
Time TempWeatherWind HumidityBarometerVisibility
5:00 AM
Wed, Jun 29
64 °FMild.2 mph79%29.99 "HgN/A
4:00 AM63 °FMild.1 mph79%29.99 "HgN/A
3:00 AM62 °FCool.1 mph81%30.01 "HgN/A
2:00 AM62 °FCool.1 mph80%30.00 "HgN/A
1:00 AM63 °FMild.1 mph77%30.00 "HgN/A
12:00 AM64 °FMild.2 mph73%29.99 "HgN/A
11:00 PM
Tue, Jun 28
65 °FMild.2 mph67%29.98 "HgN/A
10:00 PM69 °FMild.3 mph60%29.97 "HgN/A
9:00 PM71 °FMild.7 mph56%29.96 "HgN/A
8:00 PM74 °FPassing clouds.2 mph47%29.94 "HgN/A
7:00 PM76 °FMild.5 mph41%29.93 "HgN/A
6:00 PM77 °FPleasantly warm.7 mph40%29.94 "HgN/A
5:00 PM76 °FMild.7 mph45%29.95 "HgN/A
4:00 PM76 °FMild.5 mph44%29.96 "HgN/A
3:00 PM74 °FMild.5 mph44%29.99 "HgN/A
2:00 PM73 °FPassing clouds.3 mph48%30.01 "HgN/A
1:00 PM74 °FMild.5 mph45%30.03 "HgN/A
12:00 PM70 °FMild.2 mph56%30.06 "HgN/A
11:00 AM68 °FMild.2 mph55%30.08 "HgN/A
10:00 AM65 °FMild.2 mph62%30.10 "HgN/A
9:00 AM61 °FCool.2 mph72%30.12 "HgN/A
8:00 AM59 °FPassing clouds.1 mph76%30.14 "HgN/A
7:00 AM58 °FCool.No wind82%30.14 "HgN/A
Weather by CustomWeather, © 2016

See weather overviewHow to use our weather pages